Simultaneous Nadir Overpasses (SNOs) Predictions

Prediction of SNOs between AQUA and NOAA-19 Satellite Orbit:

Table of predicted SNOs for the next 14.0 days since TLE Epoch: 4/4/2015
Index Date (AQUA) Time (AQUA) Lat,Lon (AQUA) SZA (AQUA ) Date (NOAA-19) Time (NOAA-19) Lat,Lon (NOAA-19) SZA (NOAA-19 ) Distance(km) Time Diff (sec)
1 04/05/2015 02:04:14 -79.62, -58.49 105.07 04/05/2015 02:04:15 -79.63, -58.52 105.06 0.93 1
2 04/07/2015 06:48:38 -79.73,-130.41 105.74 04/07/2015 06:47:45 -79.73,-130.34 105.73 1.51 53
3 04/07/2015 07:38:01 79.59, 38.28 74.03 04/07/2015 07:38:37 79.60, 38.19 74.03 2.21 36
4 04/09/2015 12:22:23 79.66, -33.30 73.30 04/09/2015 12:22:05 79.65, -33.17 73.29 2.71 18
5 04/11/2015 17:06:46 79.79,-105.36 72.68 04/11/2015 17:05:36 79.80,-105.45 72.72 2.09 70
6 04/11/2015 17:56:08 -79.63, 63.48 107.59 04/11/2015 17:56:37 -79.63, 63.42 107.58 1.57 29
7 04/13/2015 22:40:30 -79.74, -8.46 108.22 04/13/2015 22:40:07 -79.75, -8.60 108.19 2.98 23
8 04/13/2015 23:29:52 79.57, 160.44 71.52 04/13/2015 23:30:57 79.58, 160.42 71.50 0.55 65
9 04/16/2015 03:25:27 -80.96, -91.65 106.85 04/16/2015 03:24:13 -80.67, -92.38 106.95 34.54 74
10 04/16/2015 04:14:13 79.68, 88.57 70.88 04/16/2015 04:14:26 79.67, 88.65 70.87 1.84 13
11 04/18/2015 08:58:33 79.78, 16.77 70.25 04/18/2015 08:57:55 79.77, 16.82 70.26 1.08 38




NCC Satellite Simultaneous Nadir Overpasses (SNOs) Prediction Service
